Location: Chacón
(10.5789°N, 66.9317°W)
Time: 15:25:32
(UTC+00:00)

Cosmos 1727 Rocket - Pass Details

Date: 11 August 2024
Orbit: 960 x 997 km, 82.9° (Epoch: 08 September)

Event Time Altitude Azimuth Distance (km) Brightness Sun altitude
Rises 00:41:29 0° 350° (N) 3,642 7.4 -27.2°
Reaches altitude 10° 00:44:00 10° 347° (NNW) 2,692 6.7 -27.7°
Maximum altitude 00:50:04 62° 268° (W) 1,072 4.3 -29.1°
Enters shadow 00:52:37 35° 202° (SSW) 1,498 4.9 -29.7°
